This is the latest recevied weather packets stored in our database for station/object HB9EYW-6. If no packets are shown the sender has not sent any weather packets the latest 10 day(s).
| Time | Temp. | Humidity | Pressure | Rain* | Wind** | Luminosity | Snow |
|---|---|---|---|---|---|---|---|
| 1778073305 | 11.11° C | 81% | 0 hPa | 0.51 mm | - | - | - |
| 1778073005 | 11.11° C | 82% | 0 hPa | 0.51 mm | - | - | - |
| 1778072705 | 11.11° C | 83% | 0 hPa | 1.02 mm | - | - | - |
| 1778072405 | 11.11° C | 83% | 0 hPa | 1.02 mm | - | - | - |
| 1778072105 | 11.11° C | 83% | 0 hPa | 1.02 mm | - | - | - |
| 1778071805 | 11.67° C | 85% | 0 hPa | 1.02 mm | - | - | - |
| 1778071505 | 11.67° C | 85% | 0 hPa | 1.27 mm | - | - | - |
| 1778071205 | 11.67° C | 85% | 0 hPa | 1.27 mm | - | - | - |
| 1778070905 | 11.67° C | 85% | 0 hPa | 1.78 mm | - | - | - |
| 1778070605 | 11.67° C | 86% | 0 hPa | 3.56 mm | - | - | - |
| 1778070305 | 12.22° C | 87% | 0 hPa | 4.32 mm | - | - | - |
| 1778070005 | 12.22° C | 86% | 0 hPa | 4.57 mm | - | - | - |
| 1778069705 | 12.22° C | 86% | 0 hPa | 4.32 mm | - | - | - |
| 1778069405 | 11.67° C | 85% | 0 hPa | 4.57 mm | - | - | - |
| 1778069105 | 11.67° C | 83% | 0 hPa | 4.57 mm | - | - | - |
| 1778068805 | 11.67° C | 83% | 0 hPa | 4.57 mm | - | - | - |
| 1778068505 | 11.67° C | 83% | 0 hPa | 4.57 mm | - | - | - |
| 1778068205 | 11.67° C | 82% | 0 hPa | 4.83 mm | - | - | - |
| 1778067905 | 12.78° C | 81% | 0 hPa | 4.57 mm | - | - | - |
| 1778067605 | 12.22° C | 79% | 0 hPa | 4.83 mm | - | - | - |
| 1778067305 | 12.78° C | 79% | 0 hPa | 3.81 mm | - | - | - |
| 1778067005 | 13.33° C | 79% | 0 hPa | 2.03 mm | - | - | - |
| 1778066768 | 13.33° C | 78% | 0 hPa | 1.78 mm | - | - | - |
| 1778066405 | 13.33° C | 77% | 0 hPa | 1.52 mm | - | - | - |
| 1778066105 | 13.33° C | 76% | 0 hPa | 1.78 mm | - | - | - |
* Rain latest hour (hover to see other rain measurements)
** Current wind speed in m/s (hover to see current wind gust speed)